| time (UTC) | temp C | wind direction | speed KPH | gust KPH | rain 1hr cm | rain 24hr cm | rain mn cm | humidity % | barometer mb |
| 20260903183551 | 36 | 55 | 4.8 | 16.1 | 0.00 | 0.00 | 0.00 | 47 | 1015.8 |
| 20260903183054 | 36 | 179 | 6.4 | 17.7 | 0.00 | 0.00 | 0.00 | 46 | 1015.8 |
| 20260903182552 | 35 | 315 | 3.2 | 11.3 | 0.00 | 0.00 | 0.00 | 50 | 1016.0 |
| 20260903182050 | 35 | 315 | 4.8 | 12.9 | 0.00 | 0.00 | 0.00 | 49 | 1016.0 |
| 20260903181552 | 35 | 213 | 3.2 | 12.9 | 0.00 | 0.00 | 0.00 | 48 | 1016.0 |
| 20260903181051 | 35 | 170 | 1.6 | 12.9 | 0.00 | 0.00 | 0.00 | 55 | 1016.0 |
| 20260903180652 | 33 | 340 | 3.2 | 6.4 | 0.00 | 0.00 | 0.00 | 51 | 1016.0 |
| 20260903180053 | 35 | 148 | 1.6 | 8.0 | 0.00 | 0.00 | 0.00 | 50 | 1016.1 |
| 20260903175549 | 35 | 109 | 1.6 | 16.1 | 0.00 | 0.00 | 0.00 | 49 | 1016.2 |
| 20260903175049 | 35 | 142 | 8.0 | 16.1 | 0.00 | 0.00 | 0.00 | 48 | 1016.2 |
| 20260903174548 | 36 | 279 | 6.4 | 14.5 | 0.00 | 0.00 | 0.00 | 47 | 1016.3 |
| 20260903174050 | 35 | 300 | 4.8 | 16.1 | 0.00 | 0.00 | 0.00 | 50 | 1016.2 |
| 20260903173546 | 34 | 168 | 4.8 | 16.1 | 0.00 | 0.00 | 0.00 | 50 | 1016.5 |
| 20260903173050 | 35 | 306 | 4.8 | 14.5 | 0.00 | 0.00 | 0.00 | 50 | 1016.5 |
| 20260903172545 | 35 | 200 | 3.2 | 14.5 | 0.00 | 0.00 | 0.00 | 50 | 1016.5 |
| 20260903172045 | 35 | 137 | 3.2 | 17.7 | 0.00 | 0.00 | 0.00 | 51 | 1016.6 |
| 20260903171544 | 35 | 209 | 6.4 | 17.7 | 0.00 | 0.00 | 0.00 | 50 | 1016.6 |
| 20260903171044 | 35 | 31 | 3.2 | 16.1 | 0.00 | 0.00 | 0.00 | 48 | 1016.8 |
| 20260903170643 | 36 | 203 | 8.0 | 16.1 | 0.00 | 0.00 | 0.00 | 47 | 1016.8 |
| 20260903170059 | 36 | 145 | 3.2 | 16.1 | 0.00 | 0.00 | 0.00 | 49 | 1016.7 |
| 20260903165551 | 35 | 332 | 4.8 | 19.3 | 0.00 | 0.00 | 0.00 | 49 | 1016.9 |
| 20260903165049 | 35 | 246 | 1.6 | 19.3 | 0.00 | 0.00 | 0.00 | 52 | 1016.9 |
| 20260903164551 | 35 | 223 | 3.2 | 16.1 | 0.00 | 0.00 | 0.00 | 51 | 1016.9 |
| 20260903164048 | 35 | 244 | 4.8 | 14.5 | 0.00 | 0.00 | 0.00 | 51 | 1016.9 |
| 20260903163548 | 35 | 195 | 4.8 | 12.9 | 0.00 | 0.00 | 0.00 | 52 | 1017.0 |
| 20260903163100 | 35 | 207 | 4.8 | 14.5 | 0.00 | 0.00 | 0.00 | 53 | 1017.0 |
| 20260903162545 | 34 | 106 | 4.8 | 14.5 | 0.00 | 0.00 | 0.00 | 55 | 1017.1 |
| 20260903162044 | 34 | 63 | 6.4 | 16.1 | 0.00 | 0.00 | 0.00 | 54 | 1017.1 |
| 20260903161544 | 34 | 205 | 3.2 | 16.1 | 0.00 | 0.00 | 0.00 | 55 | 1017.2 |
| 20260903161041 | 34 | 222 | 6.4 | 16.1 | 0.00 | 0.00 | 0.00 | 55 | 1017.2 |
| 20260903160510 | 34 | 171 | 3.2 | 16.1 | 0.00 | 0.00 | 0.00 | 55 | 1017.2 |
| 20260903160009 | 33 | 189 | 3.2 | 14.5 | 0.00 | 0.00 | 0.00 | 56 | 1017.2 |
| 20260903155506 | 33 | 214 | 4.8 | 22.5 | 0.00 | 0.00 | 0.00 | 56 | 1017.3 |
| 20260903155005 | 33 | 207 | 6.4 | 22.5 | 0.00 | 0.00 | 0.00 | 56 | 1017.3 |
| 20260903154504 | 33 | 311 | 4.8 | 11.3 | 0.00 | 0.00 | 0.00 | 56 | 1017.4 |
| 20260903154004 | 33 | 186 | 3.2 | 12.9 | 0.00 | 0.00 | 0.00 | 56 | 1017.4 |
| 20260903153502 | 33 | 274 | 3.2 | 8.0 | 0.00 | 0.00 | 0.00 | 58 | 1017.4 |
| 20260903153100 | 33 | 269 | 1.6 | 12.9 | 0.00 | 0.00 | 0.00 | 59 | 1017.5 |
| 20260903152558 | 32 | 175 | 3.2 | 17.7 | 0.00 | 0.00 | 0.00 | 61 | 1017.5 |
| 20260903152057 | 32 | 211 | 6.4 | 17.7 | 0.00 | 0.00 | 0.00 | 59 | 1017.5 |
| 20260903151556 | 32 | 184 | 3.2 | 8.0 | 0.00 | 0.00 | 0.00 | 60 | 1017.6 |
| 20260903151055 | 32 | 302 | 3.2 | 8.0 | 0.00 | 0.00 | 0.00 | 61 | 1017.5 |
| 20260903150504 | 31 | 239 | 3.2 | 9.7 | 0.00 | 0.00 | 0.00 | 62 | 1017.5 |
| 20260903150005 | 32 | 213 | 1.6 | 14.5 | 0.00 | 0.00 | 0.00 | 62 | 1017.4 |
| 20260903145501 | 31 | 303 | 3.2 | 14.5 | 0.00 | 0.00 | 0.00 | 65 | 1017.6 |
| 20260903145059 | 31 | 98 | 1.6 | 12.9 | 0.00 | 0.00 | 0.00 | 64 | 1017.6 |
| 20260903144602 | 31 | 220 | 3.2 | 12.9 | 0.00 | 0.00 | 0.00 | 66 | 1017.6 |
| 20260903144059 | 31 | 217 | 3.2 | 12.9 | 0.00 | 0.00 | 0.00 | 66 | 1017.7 |
| 20260903143555 | 31 | 165 | 3.2 | 6.4 | 0.00 | 0.00 | 0.00 | 66 | 1017.7 |
| 20260903143059 | 30 | 196 | 1.6 | 14.5 | 0.00 | 0.00 | 0.00 | 69 | 1017.8 |
| 20260903142553 | 30 | 264 | 4.8 | 14.5 | 0.00 | 0.00 | 0.00 | 69 | 1017.8 |
| 20260903142056 | 30 | 327 | 1.6 | 6.4 | 0.00 | 0.00 | 0.00 | 70 | 1017.7 |
| 20260903141556 | 30 | 182 | 3.2 | 9.7 | 0.00 | 0.00 | 0.00 | 70 | 1017.8 |
| 20260903141049 | 29 | 275 | 3.2 | 9.7 | 0.00 | 0.00 | 0.00 | 72 | 1017.8 |
| 20260903140648 | 29 | 79 | 1.6 | 11.3 | 0.00 | 0.00 | 0.00 | 73 | 1017.7 |
| 20260903140052 | 28 | 255 | 1.6 | 12.9 | 0.00 | 0.00 | 0.00 | 75 | 1017.8 |
| 20260903135549 | 27 | 231 | 3.2 | 12.9 | 0.00 | 0.00 | 0.00 | 78 | 1017.8 |
| 20260903135048 | 26 | 270 | 1.6 | 8.0 | 0.00 | 0.00 | 0.00 | 83 | 1017.9 |
| 20260903134546 | 26 | 188 | 1.6 | 6.4 | 0.00 | 0.00 | 0.00 | 85 | 1017.8 |
| 20260903134049 | 25 | 196 | 1.6 | 8.0 | 0.00 | 0.00 | 0.00 | 87 | 1017.8 |
| 20260903133544 | 24 | 185 | 1.6 | 8.0 | 0.00 | 0.00 | 0.00 | 89 | 1017.9 |
| 20260903133043 | 23 | 171 | 1.6 | 4.8 | 0.00 | 0.00 | 0.00 | 90 | 1017.9 |
| 20260903132542 | 23 | 175 | 0.0 | 4.8 | 0.00 | 0.00 | 0.00 | 92 | 1018.0 |
| 20260903132042 | 23 | 203 | 0.0 | 3.2 | 0.00 | 0.00 | 0.00 | 92 | 1017.9 |
| 20260903131543 | 23 | 203 | 0.0 | 3.2 | 0.00 | 0.00 | 0.00 | 93 | 1017.9 |
| 20260903131042 | 22 | 155 | 0.0 | 1.6 | 0.00 | 0.00 | 0.00 | 93 | 1017.8 |
| 20260903130642 | 22 | 155 | 0.0 | 1.6 | 0.00 | 0.00 | 0.00 | 93 | 1017.8 |
| 20260903130048 | 22 | 155 | 0.0 | 0.0 | 0.00 | 0.00 | 0.00 | 94 | 1017.7 |
| 20260903125546 | 22 | 155 | 0.0 | 0.0 | 0.00 | 0.00 | 0.00 | 94 | 1017.8 |
| 20260903125045 | 22 | 155 | 0.0 | 1.6 | 0.00 | 0.00 | 0.00 | 94 | 1017.8 |
| 20260903124553 | 21 | 155 | 0.0 | 1.6 | 0.00 | 0.00 | 0.00 | 94 | 1017.7 |
| 20260903124044 | 21 | 155 | 0.0 | 0.0 | 0.00 | 0.00 | 0.00 | 94 | 1017.7 |
| 20260903123544 | 21 | 155 | 0.0 | 0.0 | 0.00 | 0.00 | 0.00 | 94 | 1017.7 |
| 20260903123044 | 21 | 155 | 0.0 | 0.0 | 0.00 | 0.00 | 0.00 | 95 | 1017.6 |
| 20260903122545 | 21 | 155 | 0.0 | 1.6 | 0.00 | 0.00 | 0.00 | 95 | 1017.7 |
| 20260903122042 | 21 | 155 | 0.0 | 1.6 | 0.00 | 0.00 | 0.00 | 95 | 1017.7 |
| 20260903121544 | 21 | 155 | 0.0 | 0.0 | 0.00 | 0.00 | 0.00 | 95 | 1017.7 |
| 20260903121040 | 21 | 155 | 0.0 | 0.0 | 0.00 | 0.00 | 0.00 | 95 | 1017.7 |
| 20260903120503 | 21 | 155 | 0.0 | 0.0 | 0.00 | 0.00 | 0.00 | 95 | 1017.6 |
| 20260903120003 | 20 | 155 | 0.0 | 1.6 | 0.00 | 0.00 | 0.00 | 95 | 1017.5 |
| 20260903115500 | 20 | 154 | 0.0 | 1.6 | 0.00 | 0.00 | 0.00 | 95 | 1017.6 |
| 20260903115100 | 20 | 161 | 0.0 | 1.6 | 0.00 | 0.00 | 0.00 | 95 | 1017.6 |
| 20260903114618 | 20 | 161 | 0.0 | 1.6 | 0.00 | 0.00 | 0.00 | 95 | 1017.6 |
| 20260903114058 | 20 | 161 | 0.0 | 0.0 | 0.00 | 0.00 | 0.00 | 95 | 1017.6 |
| 20260903113558 | 20 | 161 | 0.0 | 1.6 | 0.00 | 0.00 | 0.00 | 95 | 1017.5 |
| 20260903113104 | 21 | 161 | 0.0 | 1.6 | 0.00 | 0.00 | 0.00 | 94 | 1017.4 |
| 20260903112558 | 21 | 161 | 0.0 | 1.6 | 0.00 | 0.00 | 0.00 | 94 | 1017.4 |
| 20260903112056 | 21 | 161 | 0.0 | 1.6 | 0.00 | 0.00 | 0.00 | 94 | 1017.3 |
| 20260903111616 | 21 | 161 | 0.0 | 0.0 | 0.00 | 0.00 | 0.00 | 94 | 1017.4 |
| 20260903111058 | 21 | 161 | 0.0 | 1.6 | 0.00 | 0.00 | 0.00 | 94 | 1017.4 |
| 20260903110657 | 21 | 161 | 0.0 | 1.6 | 0.00 | 0.00 | 0.00 | 94 | 1017.4 |
| 20260903110055 | 21 | 161 | 0.0 | 1.6 | 0.00 | 0.00 | 0.00 | 94 | 1017.3 |
| 20260903105557 | 21 | 161 | 0.0 | 0.0 | 0.00 | 0.00 | 0.00 | 94 | 1017.3 |
| 20260903105055 | 21 | 161 | 0.0 | 1.6 | 0.00 | 0.00 | 0.00 | 94 | 1017.3 |
| 20260903104559 | 21 | 161 | 0.0 | 1.6 | 0.00 | 0.00 | 0.00 | 94 | 1017.2 |
| 20260903104051 | 21 | 161 | 0.0 | 1.6 | 0.00 | 0.00 | 0.00 | 94 | 1017.1 |
| 20260903103551 | 21 | 161 | 0.0 | 1.6 | 0.00 | 0.00 | 0.00 | 94 | 1017.1 |
| 20260903103058 | 21 | 161 | 0.0 | 1.6 | 0.00 | 0.00 | 0.00 | 94 | 1017.0 |
| 20260903102550 | 21 | 161 | 0.0 | 1.6 | 0.00 | 0.00 | 0.00 | 94 | 1017.1 |
| 20260903102050 | 21 | 161 | 0.0 | 1.6 | 0.00 | 0.00 | 0.00 | 94 | 1017.1 |
| 20260903101553 | 21 | 161 | 0.0 | 1.6 | 0.00 | 0.00 | 0.00 | 94 | 1017.1 |
| 20260903101050 | 21 | 161 | 0.0 | 1.6 | 0.00 | 0.00 | 0.00 | 94 | 1017.1 |
| 20260903100652 | 21 | 161 | 0.0 | 0.0 | 0.00 | 0.00 | 0.00 | 94 | 1017.0 |
| 20260903100048 | 21 | 161 | 0.0 | 0.0 | 0.00 | 0.00 | 0.00 | 94 | 1017.0 |
| 20260903095547 | 21 | 161 | 0.0 | 0.0 | 0.00 | 0.00 | 0.00 | 94 | 1017.0 |
| 20260903095047 | 21 | 161 | 0.0 | 0.0 | 0.00 | 0.00 | 0.00 | 94 | 1017.0 |
| 20260903094556 | 21 | 161 | 0.0 | 0.0 | 0.00 | 0.00 | 0.00 | 94 | 1017.0 |
| 20260903094046 | 21 | 161 | 0.0 | 0.0 | 0.00 | 0.00 | 0.00 | 94 | 1016.9 |
| 20260903093546 | 21 | 161 | 0.0 | 0.0 | 0.00 | 0.00 | 0.00 | 94 | 1017.0 |
| 20260903093120 | 21 | 161 | 0.0 | 0.0 | 0.00 | 0.00 | 0.00 | 94 | 1017.0 |
| 20260903092546 | 21 | 161 | 0.0 | 0.0 | 0.00 | 0.00 | 0.00 | 93 | 1016.9 |
| 20260903092046 | 21 | 161 | 0.0 | 0.0 | 0.00 | 0.00 | 0.00 | 93 | 1017.0 |
| 20260903091552 | 21 | 161 | 0.0 | 0.0 | 0.00 | 0.00 | 0.00 | 93 | 1017.0 |
| 20260903091046 | 21 | 161 | 0.0 | 0.0 | 0.00 | 0.00 | 0.00 | 93 | 1017.0 |
| 20260903090646 | 21 | 161 | 0.0 | 0.0 | 0.00 | 0.00 | 0.00 | 93 | 1017.0 |
| 20260903090050 | 21 | 161 | 0.0 | 0.0 | 0.00 | 0.00 | 0.00 | 93 | 1017.0 |
| 20260903085548 | 21 | 161 | 0.0 | 0.0 | 0.00 | 0.00 | 0.00 | 93 | 1016.9 |
| 20260903085048 | 21 | 161 | 0.0 | 0.0 | 0.00 | 0.00 | 0.00 | 92 | 1017.1 |
| 20260903084548 | 21 | 161 | 0.0 | 0.0 | 0.00 | 0.00 | 0.00 | 92 | 1017.0 |
| 20260903084048 | 21 | 161 | 0.0 | 0.0 | 0.00 | 0.00 | 0.00 | 92 | 1017.0 |
| 20260903083548 | 21 | 161 | 0.0 | 0.0 | 0.00 | 0.00 | 0.00 | 92 | 1016.9 |
| 20260903083051 | 21 | 161 | 0.0 | 0.0 | 0.00 | 0.00 | 0.00 | 92 | 1017.0 |
| 20260903082547 | 21 | 161 | 0.0 | 0.0 | 0.00 | 0.00 | 0.00 | 92 | 1017.0 |
| 20260903082046 | 21 | 161 | 0.0 | 0.0 | 0.00 | 0.00 | 0.00 | 91 | 1016.9 |
| 20260903081545 | 21 | 161 | 0.0 | 0.0 | 0.00 | 0.00 | 0.00 | 91 | 1016.9 |
| 20260903081044 | 21 | 161 | 0.0 | 0.0 | 0.00 | 0.00 | 0.00 | 91 | 1016.8 |
| 20260903080644 | 22 | 161 | 0.0 | 0.0 | 0.00 | 0.00 | 0.00 | 91 | 1016.8 |
| 20260903080045 | 22 | 161 | 0.0 | 0.0 | 0.00 | 0.00 | 0.00 | 91 | 1016.8 |
| 20260903075548 | 22 | 161 | 0.0 | 0.0 | 0.00 | 0.00 | 0.00 | 91 | 1016.8 |
| 20260903075048 | 22 | 161 | 0.0 | 1.6 | 0.00 | 0.00 | 0.00 | 91 | 1016.8 |
| 20260903074546 | 22 | 161 | 0.0 | 1.6 | 0.00 | 0.00 | 0.00 | 91 | 1016.9 |
| 20260903074043 | 22 | 161 | 0.0 | 0.0 | 0.00 | 0.00 | 0.00 | 91 | 1016.9 |
| 20260903073543 | 22 | 161 | 0.0 | 0.0 | 0.00 | 0.00 | 0.00 | 90 | 1016.9 |
| 20260903073043 | 22 | 161 | 0.0 | 0.0 | 0.00 | 0.00 | 0.00 | 91 | 1016.9 |
| 20260903072541 | 22 | 161 | 0.0 | 0.0 | 0.00 | 0.00 | 0.00 | 90 | 1016.9 |
| 20260903072041 | 22 | 161 | 0.0 | 0.0 | 0.00 | 0.00 | 0.00 | 90 | 1017.0 |
| 20260903071554 | 22 | 161 | 0.0 | 0.0 | 0.00 | 0.00 | 0.00 | 90 | 1017.0 |
| 20260903071041 | 22 | 161 | 0.0 | 0.0 | 0.00 | 0.00 | 0.00 | 90 | 1017.0 |
| 20260903070642 | 22 | 161 | 0.0 | 0.0 | 0.00 | 0.00 | 0.00 | 90 | 1017.0 |
| 20260903070058 | 22 | 161 | 0.0 | 1.6 | 0.00 | 0.00 | 0.00 | 90 | 1017.0 |
| 20260903065547 | 22 | 161 | 0.0 | 0.0 | 0.00 | 0.00 | 0.00 | 89 | 1017.0 |
| 20260903065042 | 22 | 161 | 0.0 | 0.0 | 0.00 | 0.00 | 0.00 | 89 | 1017.0 |
| 20260903064542 | 22 | 161 | 0.0 | 1.6 | 0.00 | 0.00 | 0.00 | 88 | 1017.0 |
| 20260903064042 | 22 | 161 | 0.0 | 1.6 | 0.00 | 0.00 | 0.00 | 88 | 1017.1 |
| 20260903063542 | 22 | 157 | 0.0 | 3.2 | 0.00 | 0.00 | 0.00 | 88 | 1017.0 |
| 20260903063042 | 22 | 157 | 0.0 | 4.8 | 0.00 | 0.00 | 0.00 | 88 | 1017.0 |
| 20260903062541 | 22 | 148 | 0.0 | 4.8 | 0.00 | 0.00 | 0.00 | 88 | 1017.0 |
| 20260903062041 | 22 | 164 | 0.0 | 3.2 | 0.00 | 0.00 | 0.00 | 89 | 1017.1 |
| 20260903061542 | 22 | 158 | 0.0 | 4.8 | 0.00 | 0.00 | 0.00 | 89 | 1017.0 |
| 20260903061039 | 23 | 158 | 0.0 | 4.8 | 0.00 | 0.00 | 0.00 | 89 | 1017.1 |
| 20260903060501 | 23 | 144 | 0.0 | 1.6 | 0.00 | 0.00 | 0.00 | 88 | 1017.1 |
| 20260903055600 | 23 | 142 | 0.0 | 3.2 | 0.00 | 0.00 | 0.00 | 88 | 1017.1 |
| 20260903055058 | 23 | 170 | 0.0 | 8.0 | 0.00 | 0.00 | 0.00 | 88 | 1017.0 |
| 20260903054558 | 23 | 138 | 0.0 | 8.0 | 0.00 | 0.00 | 0.00 | 88 | 1016.9 |
| 20260903054058 | 23 | 178 | 0.0 | 3.2 | 0.00 | 0.00 | 0.00 | 87 | 1016.9 |
| 20260903053558 | 23 | 190 | 0.0 | 6.4 | 0.00 | 0.00 | 0.00 | 87 | 1016.9 |
| 20260903053056 | 23 | 190 | 0.0 | 6.4 | 0.00 | 0.00 | 0.00 | 86 | 1016.9 |
| 20260903052556 | 23 | 178 | 0.0 | 4.8 | 0.00 | 0.00 | 0.00 | 86 | 1016.9 |
| 20260903052055 | 23 | 140 | 0.0 | 4.8 | 0.00 | 0.00 | 0.00 | 85 | 1016.9 |
| 20260903051555 | 23 | 147 | 0.0 | 4.8 | 0.00 | 0.00 | 0.00 | 86 | 1016.9 |
| 20260903051053 | 23 | 146 | 1.6 | 6.4 | 0.00 | 0.00 | 0.00 | 86 | 1016.9 |
| 20260903050654 | 23 | 129 | 1.6 | 6.4 | 0.00 | 0.00 | 0.00 | 85 | 1016.8 |
| 20260903050107 | 23 | 144 | 0.0 | 4.8 | 0.00 | 0.00 | 0.00 | 84 | 1016.8 |
| 20260903045551 | 24 | 145 | 0.0 | 4.8 | 0.00 | 0.00 | 0.00 | 84 | 1016.7 |
| 20260903045050 | 24 | 186 | 0.0 | 4.8 | 0.00 | 0.00 | 0.00 | 83 | 1016.8 |
| 20260903044559 | 24 | 147 | 0.0 | 4.8 | 0.00 | 0.00 | 0.00 | 83 | 1016.7 |
| 20260903044050 | 24 | 146 | 0.0 | 3.2 | 0.00 | 0.00 | 0.00 | 83 | 1016.8 |
| 20260903043550 | 25 | 146 | 0.0 | 3.2 | 0.00 | 0.00 | 0.00 | 82 | 1016.8 |
| 20260903043049 | 25 | 198 | 0.0 | 4.8 | 0.00 | 0.00 | 0.00 | 82 | 1016.8 |
| 20260903042550 | 25 | 209 | 0.0 | 4.8 | 0.00 | 0.00 | 0.00 | 82 | 1016.7 |
| 20260903042054 | 25 | 188 | 0.0 | 3.2 | 0.00 | 0.00 | 0.00 | 83 | 1016.7 |
| 20260903041605 | 25 | 198 | 0.0 | 3.2 | 0.00 | 0.00 | 0.00 | 82 | 1016.8 |
| 20260903041049 | 25 | 196 | 0.0 | 4.8 | 0.00 | 0.00 | 0.00 | 81 | 1016.8 |
| 20260903040650 | 25 | 161 | 0.0 | 4.8 | 0.00 | 0.00 | 0.00 | 81 | 1016.7 |
| 20260903040052 | 25 | 193 | 0.0 | 4.8 | 0.00 | 0.00 | 0.00 | 81 | 1016.7 |
| 20260903035547 | 25 | 168 | 1.6 | 8.0 | 0.00 | 0.00 | 0.00 | 79 | 1016.7 |
| 20260903035046 | 25 | 171 | 1.6 | 8.0 | 0.00 | 0.00 | 0.00 | 79 | 1016.6 |
| 20260903034546 | 26 | 182 | 0.0 | 8.0 | 0.00 | 0.00 | 0.00 | 78 | 1016.6 |
| 20260903034046 | 26 | 179 | 1.6 | 6.4 | 0.00 | 0.00 | 0.00 | 78 | 1016.4 |
| 20260903033545 | 26 | 162 | 1.6 | 6.4 | 0.00 | 0.00 | 0.00 | 78 | 1016.4 |
| 20260903033046 | 26 | 174 | 0.0 | 4.8 | 0.00 | 0.00 | 0.00 | 78 | 1016.4 |
| 20260903032546 | 26 | 155 | 0.0 | 8.0 | 0.00 | 0.00 | 0.00 | 78 | 1016.4 |
| 20260903032045 | 26 | 172 | 0.0 | 8.0 | 0.00 | 0.00 | 0.00 | 77 | 1016.6 |
| 20260903031544 | 26 | 162 | 1.6 | 8.0 | 0.00 | 0.00 | 0.00 | 76 | 1016.5 |
| 20260903031047 | 26 | 188 | 1.6 | 6.4 | 0.00 | 0.00 | 0.00 | 77 | 1016.5 |
| 20260903030645 | 26 | 148 | 0.0 | 6.4 | 0.00 | 0.00 | 0.00 | 76 | 1016.5 |
| 20260903030041 | 26 | 176 | 1.6 | 9.7 | 0.00 | 0.00 | 0.00 | 77 | 1016.5 |
| 20260903025540 | 26 | 170 | 3.2 | 9.7 | 0.00 | 0.00 | 0.00 | 77 | 1016.5 |
| 20260903025040 | 26 | 186 | 1.6 | 9.7 | 0.00 | 0.00 | 0.00 | 77 | 1016.4 |
| 20260903024541 | 26 | 165 | 3.2 | 9.7 | 0.00 | 0.00 | 0.00 | 77 | 1016.5 |
| 20260903024039 | 26 | 156 | 3.2 | 8.0 | 0.00 | 0.00 | 0.00 | 76 | 1016.6 |
| 20260903023540 | 26 | 177 | 1.6 | 8.0 | 0.00 | 0.00 | 0.00 | 76 | 1016.5 |
| 20260903023043 | 26 | 150 | 1.6 | 14.5 | 0.00 | 0.00 | 0.00 | 75 | 1016.5 |
| 20260903022542 | 27 | 165 | 1.6 | 9.7 | 0.00 | 0.00 | 0.00 | 75 | 1016.5 |
| 20260903022039 | 27 | 171 | 1.6 | 8.0 | 0.00 | 0.00 | 0.00 | 75 | 1016.4 |
| 20260903021539 | 27 | 155 | 1.6 | 9.7 | 0.00 | 0.00 | 0.00 | 74 | 1016.4 |
| 20260903021041 | 26 | 195 | 1.6 | 11.3 | 0.00 | 0.00 | 0.00 | 75 | 1016.3 |
| 20260903020639 | 26 | 171 | 1.6 | 11.3 | 0.00 | 0.00 | 0.00 | 76 | 1016.2 |
| 20260903015558 | 26 | 206 | 1.6 | 9.7 | 0.00 | 0.00 | 0.00 | 76 | 1016.1 |
| 20260903015058 | 26 | 189 | 1.6 | 8.0 | 0.00 | 0.00 | 0.00 | 76 | 1016.0 |
| 20260903014623 | 26 | 144 | 1.6 | 6.4 | 0.00 | 0.00 | 0.00 | 76 | 1015.9 |
| 20260903014101 | 27 | 168 | 0.0 | 8.0 | 0.00 | 0.00 | 0.00 | 75 | 1015.9 |
| 20260903013557 | 27 | 176 | 1.6 | 8.0 | 0.00 | 0.00 | 0.00 | 75 | 1015.7 |
| 20260903013107 | 27 | 192 | 1.6 | 4.8 | 0.00 | 0.00 | 0.00 | 74 | 1015.7 |
| 20260903012557 | 27 | 192 | 1.6 | 4.8 | 0.00 | 0.00 | 0.00 | 74 | 1015.6 |
| 20260903012057 | 27 | 184 | 0.0 | 1.6 | 0.00 | 0.00 | 0.00 | 74 | 1015.6 |
| 20260903011557 | 27 | 184 | 0.0 | 3.2 | 0.00 | 0.00 | 0.00 | 73 | 1015.4 |
| 20260903011057 | 27 | 155 | 0.0 | 3.2 | 0.00 | 0.00 | 0.00 | 72 | 1015.4 |
| 20260903010656 | 27 | 165 | 0.0 | 3.2 | 0.00 | 0.00 | 0.00 | 71 | 1015.4 |
| 20260903010057 | 27 | 154 | 0.0 | 11.3 | 0.00 | 0.00 | 0.00 | 71 | 1015.4 |
| 20260903005557 | 27 | 157 | 1.6 | 11.3 | 0.00 | 0.00 | 0.00 | 70 | 1015.4 |
| 20260903005056 | 27 | 119 | 1.6 | 6.4 | 0.00 | 0.00 | 0.00 | 69 | 1015.4 |
| 20260903004600 | 27 | 121 | 0.0 | 4.8 | 0.00 | 0.00 | 0.00 | 68 | 1015.5 |
| 20260903004055 | 28 | 108 | 0.0 | 3.2 | 0.00 | 0.00 | 0.00 | 69 | 1015.4 |
| 20260903003556 | 28 | 157 | 0.0 | 3.2 | 0.00 | 0.00 | 0.00 | 65 | 1015.4 |
| 20260903003109 | 29 | 148 | 1.6 | 4.8 | 0.00 | 0.00 | 0.00 | 63 | 1015.5 |
| 20260903002555 | 30 | 170 | 1.6 | 4.8 | 0.00 | 0.00 | 0.00 | 62 | 1015.4 |
| 20260903002055 | 30 | 187 | 1.6 | 4.8 | 0.00 | 0.00 | 0.00 | 59 | 1015.3 |
| 20260903001555 | 30 | 182 | 1.6 | 12.9 | 0.00 | 0.00 | 0.00 | 59 | 1015.3 |
| 20260903001054 | 31 | 159 | 3.2 | 12.9 | 0.00 | 0.00 | 0.00 | 58 | 1015.2 |
| 20260903000653 | 31 | 161 | 1.6 | 8.0 | 0.00 | 0.00 | 0.00 | 53 | 1015.3 |
| 20260903000104 | 32 | 157 | 4.8 | 12.9 | 0.00 | 0.00 | 0.00 | 54 | 1015.3 |
| 20260902235555 | 32 | 126 | 4.8 | 16.1 | 0.00 | 0.00 | 0.00 | 50 | 1015.3 |
| 20260902235052 | 32 | 131 | 6.4 | 16.1 | 0.00 | 0.00 | 0.00 | 52 | 1015.3 |
| 20260902234552 | 32 | 193 | 4.8 | 12.9 | 0.00 | 0.00 | 0.00 | 50 | 1015.3 |
| 20260902234053 | 33 | 123 | 3.2 | 9.7 | 0.00 | 0.00 | 0.00 | 48 | 1015.3 |
| 20260902233550 | 33 | 137 | 3.2 | 12.9 | 0.00 | 0.00 | 0.00 | 48 | 1015.2 |
| 20260902233050 | 33 | 145 | 3.2 | 16.1 | 0.00 | 0.00 | 0.00 | 44 | 1015.3 |
| 20260902232551 | 33 | 149 | 6.4 | 16.1 | 0.00 | 0.00 | 0.00 | 44 | 1015.3 |
| 20260902232049 | 33 | 144 | 4.8 | 12.9 | 0.00 | 0.00 | 0.00 | 44 | 1015.3 |
| 20260902231549 | 33 | 128 | 3.2 | 12.9 | 0.00 | 0.00 | 0.00 | 48 | 1015.3 |
| 20260902231049 | 33 | 327 | 4.8 | 14.5 | 0.00 | 0.00 | 0.00 | 47 | 1015.3 |
| 20260902230649 | 34 | 225 | 4.8 | 14.5 | 0.00 | 0.00 | 0.00 | 45 | 1015.3 |
| 20260902230057 | 34 | 170 | 4.8 | 11.3 | 0.00 | 0.00 | 0.00 | 46 | 1015.3 |
| 20260902225552 | 34 | 129 | 3.2 | 14.5 | 0.00 | 0.00 | 0.00 | 48 | 1015.3 |
| 20260902225047 | 34 | 182 | 4.8 | 16.1 | 0.00 | 0.00 | 0.00 | 45 | 1015.3 |
| 20260902224605 | 34 | 223 | 4.8 | 16.1 | 0.00 | 0.00 | 0.00 | 46 | 1015.2 |
| 20260902224046 | 34 | 143 | 3.2 | 12.9 | 0.00 | 0.00 | 0.00 | 45 | 1015.2 |
| 20260902223549 | 34 | 181 | 4.8 | 12.9 | 0.00 | 0.00 | 0.00 | 47 | 1015.3 |
| 20260902223055 | 33 | 173 | 3.2 | 19.3 | 0.00 | 0.00 | 0.00 | 49 | 1015.3 |
| 20260902222545 | 33 | 159 | 8.0 | 19.3 | 0.00 | 0.00 | 0.00 | 48 | 1015.3 |
| 20260902222045 | 32 | 122 | 3.2 | 11.3 | 0.00 | 0.00 | 0.00 | 50 | 1015.4 |
| 20260902221545 | 33 | 130 | 3.2 | 11.3 | 0.00 | 0.00 | 0.00 | 50 | 1015.4 |
| 20260902221045 | 33 | 160 | 1.6 | 19.3 | 0.00 | 0.00 | 0.00 | 48 | 1015.4 |
| 20260902220644 | 34 | 131 | 4.8 | 19.3 | 0.00 | 0.00 | 0.00 | 45 | 1015.3 |
| 20260902220044 | 35 | 175 | 8.0 | 19.3 | 0.00 | 0.00 | 0.00 | 43 | 1015.5 |
| 20260902215543 | 35 | 184 | 4.8 | 14.5 | 0.00 | 0.00 | 0.00 | 43 | 1015.5 |
| 20260902215047 | 35 | 162 | 1.6 | 14.5 | 0.00 | 0.00 | 0.00 | 46 | 1015.5 |
| 20260902214610 | 35 | 159 | 4.8 | 14.5 | 0.00 | 0.00 | 0.00 | 44 | 1015.6 |
| 20260902214042 | 35 | 141 | 3.2 | 14.5 | 0.00 | 0.00 | 0.00 | 46 | 1015.6 |
| 20260902213541 | 35 | 155 | 3.2 | 16.1 | 0.00 | 0.00 | 0.00 | 43 | 1015.7 |
| 20260902213042 | 35 | 175 | 6.4 | 14.5 | 0.00 | 0.00 | 0.00 | 43 | 1015.7 |
| 20260902212541 | 36 | 211 | 6.4 | 16.1 | 0.00 | 0.00 | 0.00 | 41 | 1015.7 |
| 20260902212041 | 36 | 207 | 6.4 | 16.1 | 0.00 | 0.00 | 0.00 | 41 | 1015.6 |
| 20260902211541 | 36 | 173 | 4.8 | 11.3 | 0.00 | 0.00 | 0.00 | 41 | 1015.6 |
| 20260902211040 | 36 | 173 | 3.2 | 11.3 | 0.00 | 0.00 | 0.00 | 40 | 1015.7 |
| 20260902210639 | 36 | 209 | 4.8 | 16.1 | 0.00 | 0.00 | 0.00 | 40 | 1015.7 |
| 20260902210100 | 36 | 206 | 3.2 | 16.1 | 0.00 | 0.00 | 0.00 | 40 | 1015.7 |
| 20260902205600 | 36 | 169 | 4.8 | 14.5 | 0.00 | 0.00 | 0.00 | 42 | 1015.7 |
| 20260902205058 | 36 | 127 | 4.8 | 14.5 | 0.00 | 0.00 | 0.00 | 39 | 1015.7 |
| 20260902204607 | 36 | 200 | 3.2 | 12.9 | 0.00 | 0.00 | 0.00 | 41 | 1015.8 |
| 20260902204058 | 36 | 248 | 3.2 | 16.1 | 0.00 | 0.00 | 0.00 | 41 | 1015.9 |
| 20260902203557 | 36 | 165 | 6.4 | 17.7 | 0.00 | 0.00 | 0.00 | 40 | 1015.9 |
| 20260902203057 | 36 | 213 | 8.0 | 17.7 | 0.00 | 0.00 | 0.00 | 41 | 1016.0 |
| 20260902202557 | 36 | 165 | 4.8 | 16.1 | 0.00 | 0.00 | 0.00 | 45 | 1016.0 |
| 20260902202057 | 36 | 173 | 6.4 | 19.3 | 0.00 | 0.00 | 0.00 | 39 | 1016.1 |
| 20260902201621 | 37 | 113 | 8.0 | 19.3 | 0.00 | 0.00 | 0.00 | 39 | 1016.1 |
| 20260902201055 | 36 | 217 | 4.8 | 17.7 | 0.00 | 0.00 | 0.00 | 40 | 1016.1 |
| 20260902200656 | 37 | 191 | 6.4 | 17.7 | 0.00 | 0.00 | 0.00 | 40 | 1016.3 |
| 20260902200057 | 37 | 180 | 4.8 | 12.9 | 0.00 | 0.00 | 0.00 | 43 | 1016.4 |
| 20260902195556 | 37 | 225 | 6.4 | 17.7 | 0.00 | 0.00 | 0.00 | 40 | 1016.4 |
| 20260902195055 | 36 | 169 | 6.4 | 17.7 | 0.00 | 0.00 | 0.00 | 41 | 1016.5 |
| 20260902194554 | 36 | 219 | 3.2 | 16.1 | 0.00 | 0.00 | 0.00 | 46 | 1016.5 |
| 20260902194052 | 35 | 239 | 0.0 | 12.9 | 0.00 | 0.00 | 0.00 | 49 | 1016.6 |
| 20260902193556 | 35 | 164 | 3.2 | 17.7 | 0.00 | 0.00 | 0.00 | 45 | 1016.7 |
| 20260902193053 | 35 | 124 | 3.2 | 16.1 | 0.00 | 0.00 | 0.00 | 43 | 1016.7 |
| 20260902192552 | 35 | 244 | 3.2 | 9.7 | 0.00 | 0.00 | 0.00 | 46 | 1016.9 |
| 20260902192052 | 35 | 257 | 1.6 | 12.9 | 0.00 | 0.00 | 0.00 | 45 | 1016.9 |
| 20260902191552 | 35 | 191 | 6.4 | 12.9 | 0.00 | 0.00 | 0.00 | 46 | 1016.9 |
| 20260902191050 | 35 | 355 | 3.2 | 12.9 | 0.00 | 0.00 | 0.00 | 46 | 1016.9 |
| 20260902190653 | 33 | 342 | 3.2 | 8.0 | 0.00 | 0.00 | 0.00 | 50 | 1017.0 |
| 20260902190049 | 31 | 40 | 1.6 | 9.7 | 0.00 | 0.00 | 0.00 | 62 | 1017.1 |
| 20260902185548 | 32 | 101 | 1.6 | 9.7 | 0.00 | 0.00 | 0.00 | 58 | 1017.3 |
| 20260902185047 | 33 | 200 | 1.6 | 6.4 | 0.00 | 0.00 | 0.00 | 60 | 1017.2 |
| 20260902184547 | 34 | 323 | 1.6 | 8.0 | 0.00 | 0.00 | 0.00 | 47 | 1017.3 |
| 20260902184046 | 35 | 294 | 1.6 | 8.0 | 0.00 | 0.00 | 0.00 | 46 | 1017.4 |